Location: Luxembourg
(49.6117°N, 6.1300°E)
Time: 10:40:42
(UTC+01:00)

Tiangong 2 - Visible Passes

Search period start: 19 January 2018 00:00
Search period end: 29 January 2018 00:00
Orbit: 384 x 390 km, 42.8° (Epoch: 18 January)

Date Brightness Start Highest point End Pass type
(mag) Time Alt. Az. Time Alt. Az. Time Alt. Az.
19 Jan 3.7 07:13:24 10° SSW 07:15:39 18° SSE 07:17:53 10° ESE visible
20 Jan 3.8 06:15:46 11° S 06:17:10 14° SSE 06:18:53 10° SE visible
21 Jan 3.3 06:52:19 10° SW 06:54:48 21° S 06:57:18 10° ESE visible
22 Jan 3.5 05:56:28 18° SSE 05:56:28 18° SSE 05:58:32 10° ESE visible
22 Jan 3.1 07:29:52 10° WSW 07:32:30 24° S 07:35:09 10° SE visible
23 Jan 2.9 06:32:48 19° SSW 06:33:57 23° S 06:36:35 10° ESE visible
24 Jan 3.8 05:36:49 16° SE 05:36:49 16° SE 05:37:55 10° ESE visible
24 Jan 3.1 07:09:07 10° WSW 07:11:38 22° S 07:14:11 10° SE visible
25 Jan 2.8 06:13:04 24° S 06:13:04 24° S 06:15:42 10° SE visible
26 Jan 4.5 05:17:02 10° ESE 05:17:02 10° ESE 05:17:08 10° ESE visible
26 Jan 3.2 06:49:18 14° SW 06:50:44 18° SSW 06:53:01 10° SSE visible
27 Jan 3.4 05:53:16 18° SSE 05:53:16 18° SSE 05:54:41 10° SE visible
27 Jan 3.8 07:27:56 10° SSW 07:28:14 10° SSW 07:28:33 10° SSW visible
28 Jan 3.4 06:29:31 14° SSW 06:29:45 14° SSW 06:31:30 10° SSE visible
